[Date Prev][Date Next][Thread Prev][Thread Next][Date Index][Thread Index]

[jamsat-news:1737] jas2info #285



========================   最新情報   ==============================

        Last updated  02Aug2002  19:20(JST)   #285

====================================================================
   
1)アマチュア通信衛星情報、FOシリーズの軌道要素、テレメトリ、QSOの
   状況等をまとめてみました.
   
 FO−29の2002年8月2日(金)の17:43(JST)のパスでは
JARLのホームページのとうりアナログ運用でした。 今日までの観測した
テレメトリーと最終の分析結果を報告しておきます。

AS29425C  02Aug2002
17:45-18:04(JST)
AOS   MEL  LOS  Elev
 11   284  196  86.0
Freq. 435.791-.788Hz
(JAS-2 No.105 B 3565-3935 No.106 A 0-630)

HI HI AE 07 88 55 00 D4 56 54 09 44 7B A0 70 50 92 8E 9B 74 94 8E 85 8D 85 
HI HI AE 07 88 55 0O D4 56 54 09 44 7A 98 6F 50 92 8D 9B 7A 94 8E 85 8D 85 
HI HI AE 07 88 55 00 D4 56 54 09 44 7D 90 6E 50 92 8D 9A 7F 94 8E 85 8E 85 
HI HI AE 07 88 55 00 D4 56 54 09 44 7E 88 6C 52 91 8D 9A 78 94 8E 85 8E 85 
HI HI AE 07 88 55 00 D4 56 54 09 44 7E 80 6A 53 90 8C 99 8C 94 8E 85 8D 85 
HI HI AE 07 88 55 00 D4 56 54 09 44 7E 78 68 52 90 8B 98 82 94 8E 85 8D 85 
HI HI AE 07 88 55 00 D4 56 54 09 44 7E 70 67 54 90 8B 98 71 94 8E 85 8D 85 
HI HI AE 07 88 55 00 D4 56 54 09 44 7E 69 66 55 8F 8B 97 85 94 8E 85 8D 85 
HI HI AE 07 88 55 00 D4 56 54 09 44 7E 62 62 56 8E 8A 97 83 94 8E 85 8D 85 
HI HI AE 07 88 55 00 D4 56 54 09 44 7D 5C 5F 57 8D 89 96 7C 94 8E 84 8D 85 
HI HI AE 07 88 55 00 D4 56 54 09 44 7D 56 5D 59 8C 88 95 85 94 8E 85 8D 85 
HI HI AE 07 88 55 00 D4 56 54 09 44 7D 51 5D 59 8B 88 94 6E 94 8E 85 8D 85 
HI HI AE 07 88 55 00 D4 56 54 09 44 7C 4D 5E 58 8B 87 94 7D 94 8E 85 8D 85 
HI HI AE 07 88 55 00 D4 56 54 09 44 7C 4A 60 57 8B 87 94 80 94 8E 85 8D 85 
HI HI AE 07 88 55 00 D4 56 54 09 44 7C 47 60 58 8B 87 94 66 94 8E 85 8D 85 
HI HI AE 07 88 55 00 D4 56 54 09 44 7C 44 61 57 8B 87 94 6F 94 8E 85 8D 85 
HI HI AE 07 88 55 00 D4 56 54 09 44 7C 43 64 55 8C 88 95 6B 94 8E 84 8D 85 
HI HI AE 07 88 55 00 D4 56 54 09 44 7C 42 64 55 8C 88 95 72 94 8E 85 8C 85 
HI HI AE 07 88 55 00 D4 56 54 09 44 7C 41 63 56 8D 89 95 93 94 8E 84 8C 85 
HI HI AE 07 88 55 00 D4 56 54 09 44 7D 41 61 57 8C 89 95 76 94 8E 85 8C 85 
HI HI AE 07 88 55 00 D4 56 54 09 44 7D 42 60 56 8D 89 95 86 94 8E 85 8C 85 
HI HI AE 07 88 55 00 D4 56 54 09 44 7E 43 5E 59 8C 88 95 B4 94 8E 85 8C 85 
HI HI AE 07 88 55 00 D4 56 54 09 44 7F 44 5C 5A 8B 88 94 78 94 8E 85 8C 85 
HI HI AE 07 88 55 00 D4 56 54 09 44 80 45 5B 5A 8B 87 94 8C 94 8E 85 8C 85 
HI HI AE 07 88 55 00 D4 56 54 09 44 81 48 5A 5C 8A 87 94 8E 94 8E 85 8C 85 
 
AS29424C  02Aug2002
16:11-16:16(JST)
AOS   MEL  LOS  Elev
 38    92  146  14.6
Freq. 435.791-.788Hz
(JAS-2 No.105 B 3345-3565)
                                                            91 8E 88 8A 84 
HI HI AE 07 88 55 00 D4 56 54 09 44 91 6A 7E 4C 94 8E 9C 77 91 8E 88 89 84 
HI HI AE 07 88 55 00 D4 56 54 09 44 8F 67 77 4B 93 8F 9C 79 91 8E 88 89 84 
HI HI AE 07 88 55 00 D4 56 54 09 44 8C 64 78 4B 94 8F 9C 6D 91 8E 88 89 84 
HI HI AE 07 88 55 00 D4 56 54 09 44 89 61 79 4B 94 8F 9C 6D 91 8E 88 89 84 
HI HI AE C7 88 55 00 D4 56 54 09 44 86 5F 7A 4B 93 8E 9B 8A 91 8E 88 89 84 
HI HI AE 07 88 55 00 D4 56 54 09 44 82 5C 7B 4A 92 8D 9B 75 90 8E 89 89 84 
HI HI AE 07 88 55 00 D4 56 54 09 44 7E 57 7A 4B 92 8E 9B 81 90 8E 89 89 84

AS29411C  01Aug2002
16:55-17:13(JST)
AOS   MEL  LOS  Elev
 23    99  174  40.5
Freq. 435.803-.786Hz
(JAS-2 No.105 B 2675-3345)
                                                                     8D 85 
HI HI AE 07 88 55 00 D4 41 1C 09 49 54 A3 5B 59 8B 87 93 82 8D 8C 8E 8D 85 
HI HI AE 07 88 55 00 D4 41 1C 09 49 4B 99 58 5B 8A 86 92 80 8D 8C 8E 8D 85 
HI HI AE 07 88 55 00 D4 41 1C 09 49 44 8D 55 5A 89 85 92 83 8D 8C 8E 8D 85 
HI HI AE 07 88 55 00 D4 41 1C 09 49 49 6F 58 5A 88 84 91 85 8D 8C 8E 8D 85 
HI HI AE 07 88 55 00 D4 41 1C 09 49 43 67 58 5B 88 84 91 83 8D 8B 8E 8D 85 
HI HI AE 07 88 55 00 D4 41 1C 09 49 3D 63 5B 5B 87 84 90 88 8D 8C 8E 8D 85 
HI HI AE 07 88 55 00 D4 41 1C 09 49 40 56 59 59 88 84 90 85 8D 8B 8E 8E 85 
HI HI AE 07 88 55 00 D4 41 1C 09 49 44 4A 5D 59 87 84 90 83 8D 8C 8E 8E 85 
HI HI AE 07 88 55 00 D4 41 1C 09 49 4A 41 5C 59 88 84 90 81 8D 8C 8E 8E 85 
HI HI AE 07 88 55 00 D4 41 1C 09 49 52 3A 5F 58 88 85 91 75 8D 8C 8E 8E 85 
HI HI AE 07 88 55 00 D4 41 1C 09 49 59 36 64 54 88 85 91 75 8D 8B 8E 8E 85 
HI HI AE 07 88 55 00 D4 41 1C 09 49 62 35 67 54 89 86 92 7D 8D 8B 8E 8E 85 
HI HI AE 07 88 55 00 D4 41 1C 09 49 6A 38 6A 52 8B 87 93 7E 8D 8C 8E 8E 85 
HI HI AE 07 88 55 00 D4 41 1C 09 49 70 3D 70 4F 8C 88 95 86 8D 8B 8E 8E 85 
HI HI AE 07 88 55 00 D4 41 1C 09 49 76 46 74 4E 8F 8B 97 83 8D 8C 8E 8E 85
HI HI AE 07 88 55 00 D4 41 1C 09 49 79 4E 76 4C 92 8D 9B 76 8D 8C 8E 8E 85 
HI HI AE 07 88 55 00 D4 41 1C 09 49 7A 58 76 4D 93 8E 9B 71 8D 8C 8E 8E 85 
HI HI AE 07 88 55 00 D4 41 1C 08 49 79 64 75 4D 92 8E 9B 72 8D 8B 8E 8E 85 
HI HI AE 07 88 55 00 D4 41 1C 09 49 76 6E 70 4D 91 8D 9A B7 8D 8B 8E 8E 85 
HI HI AE 07 88 55 00 D4 41 1C 08 49 70 78 6D 52 91 8C 99 9E 8D 8B 8E 8E 85  
HI HI AE 07 88 55 00 D4 41 1C 08 49 69 80 66 53 8F 8B 97 7F 8D 8B 8E 8E 85 
HI HI AE 07 88 55 00 D4 41 1C 08 49 61 85 66 53 8F 8A 96 7D 8D 8B 8E 8E 85 
HI HI AE 07 88 55 00 D4 42 1B 08 49 58 87 66 54 8E 89 95 7A 8C 8B 8E 8E 85 
HI HI AE 07 88 55 00 D4 42 1C 08 49 57 8A 66 54 8F 8B 94 7D 8C 8B 8F 8E 85 

AS29385C  30Jul2002
18:43-19:00(JST)
AOS   MEL  LOS  Elev
359   291  222  32.4
Freq. 435.803-.787Hz
(JAS-2 No.105 B 1955-2675)

HI HI AE 07 88 55 00 D4 CD 7D 09 65 46 24 78 4B 93 8E 9B 5E 8F 8D 8D 8E 86 
HI HI AE 07 88 55 00 D4 CD 7D 09 65 46 25 77 4B 92 8E 9B 5D 8F 8D 8D 8E 85 
HI HI AE 07 88 55 00 D4 CD 7D 09 65 47 26 78 4B 92 8E 9B 7B 8F 8D 8D 8E 85 
HI HI AE 07 88 55 00 D4 CD 7D 09 65 47 27 77 4C 92 8D 9B 6E 8F 8D 8D 8E 85 
HI HI AE 07 88 55 00 D4 CD 7D 09 65 48 2B 66 58 8F 8B 97 54 8F 8D 8D 8E 85 
HI HI AE 07 88 55 00 D4 CD 7D 09 68 48 2F 64 56 8E 8A 96 64 8F 8C 8C 8E 85 
HI HI AE 07 88 55 00 D4 83 EE 09 68 48 34 60 57 8D 89 95 71 8F 8C 8C 8E 85 
HI HI AE 07 88 55 00 D4 83 EE 09 68 48 3C 5F 57 8B 88 94 83 8F 8C 8C 8E 85 
HI HI AE 07 88 55 00 D4 83 EE 09 68 48 45 5B 5A 8A 87 93 71 90 8C 8C 8E 85 
HI HI AE 07 88 55 00 D4 83 EE 09 68 46 4F 55 5C 8A 86 93 6A 90 8C 8C 8E 85 
HI HI AE 07 88 55 00 D4 83 EE 09 68 46 5A 50 60 88 85 91 77 90 8C 8C 8E 85 
HI HI AE 07 88 55 00 D4 83 EE 09 68 46 66 4F 60 87 84 90 6E 90 8C 8C 8E 85 
HI HI AE 07 88 55 00 D4 83 EE 09 68 46 73 50 5F 87 84 90 6C 90 8C 8C 8E 85 
HI HI AE 07 88 55 00 D4 83 EE 09 68 47 7E 54 5C 87 84 90 3F 90 8C 8C 8E 85 
HI HI AE 07 88 55 00 D4 83 EE 09 68 68 89 58 5A 88 84 90 5E 90 8C 8C 8E 85 
HI HI AE 07 88 55 00 D4 83 EE 09 68 4D 92 61 56 88 84 91 83 90 8C 8C 8E 85 
HI HI AE 07 88 55 00 D4 83 EE 09 68 51 99 69 53 88 85 92 6A 90 8C 8C 8E 85
HI HI AE 07 88 55 00 D4 83 EE 09 68 56 9E 6E 50 8A 86 93 8F 90 8C 8C 8E 85 
HI HI AE 07 88 55 00 D4 83 EE 09 68 5B A1 75 4D 8B 88 95 79 90 8C 8C 8E 85 
HI HI AE 07 88 55 00 D4 83 EE 09 68 61 A2 7B 49 8E 8B 98 92 96 8C 8C 8E 85 
HI HI AE 07 88 55 00 D4 83
    
------------------------ FO-29の軌道要素 ------------------------------        
 
  ■ 軌道要素1:「jamsat−keps:1230」より         
          SB KEPS @ AMSAT  $ORB02213.N
          2Line Orbital Elements 02213.AMSAT

HR AMSAT ORBITAL ELEMENTS FOR AMATEUR SATELLITES IN NASA FORMAT
FROM WA5QGD FORT WORTH,TX August 1, 2002
SEND SUBSCRIBE/UNSUBSCRIBE TO majordomo@amsat.org ONLY
BID: ORB02213.N

 DECODE 2-LINE ELSETS WITH THE FOLLOWING KEY:
 1 AAAAAU 00  0  0 BBBBB.BBBBBBBB  .CCCCCCCC  00000-0  00000-0 0  DDDZ
 2 AAAAA EEE.EEEE FFF.FFFF GGGGGGG HHH.HHHH III.IIII JJ.JJJJJJJJKKKKKZ
 KEY: A-CATALOGNUM B-EPOCHTIME C-DECAY D-ELSETNUM E-INCLINATION F-RAAN
 G-ECCENTRICITY H-ARGPERIGEE I-MNANOM J-MNMOTION K-ORBITNUM Z-CHECKSUM

FO-29
1 24278U 96046B   02213.52760775 -.00000027  00000-0  77641-5 0  5159
2 24278  98.5165  27.2690 0351564  17.8665 343.4473 13.52846443294128

 ■ 軌道要素2:「jamsat−keps:1229」より 
       SB KEPS @ AMSAT  $ORB02213.O
       Orbital Elements  02213.OSCAR

HR AMSAT ORBITAL ELEMENTS FOR OSCAR SATELLITES
FROM WA5QGD FORT WORTH,TX August 1, 2002
SEND SUBSCRIBE/UNSUBSCRIBE TO majordomo@amsat.org ONLY
BID: ORB02213.O
TO ALL RADIO AMATEURS BT

Satellite: FO-29
Catalog number: 24278
Epoch time:      02213.52760775
Element set:     515
Inclination:       98.5165 deg
RA of node:        27.2690 deg
Eccentricity:    0.0351564
Arg of perigee:    17.8665 deg
Mean anomaly:     343.4473 deg
Mean motion:   13.52846443 rev/day
Decay rate:       -2.7e-07 rev/day^2
Epoch rev:           29412
Checksum:              316

-------------------  FO-29(JAS-2)のテレメトリに関する情報  ---------------------- 
 
2)上記2002年8月02日(金)のテレメトリの最終行を分析しておきます.

AS29425C  02Aug2002
17:45-18:04(JST)
AOS   MEL  LOS  Elev
 11   284  196  86.0
Freq. 435.791-.788Hz
(JAS-2 No.105 B 3565-3935 No.106 A 0-630)

HI HI AE 07 88 55 00 D4 56 54 09 44 81 48 5A 5C 8A 87 94 8E 94 8E 85 8C 85 

テレメトリ   内 容         換算算値 単 位
3C	磁気センサーZ軸=	63235.3	[nT]
3D	磁気センサX軸	=	35294.1	[nT]
4A	太陽電池発生電流=	  882.4	[mA]
4B	B充放電電流	=	 -196.8	[mA]
4C	B端子電圧	=	   14.9	[V]
4D	B中間端子電圧	=	    6.5	[V]
5A	バス電圧	=	   14.5	[V]
5B	JTA送信電力	=	  824.9	[mW]
5C 	構体温度1	=	   24.4	[℃]
5D	構体温度2	=	   26.7	[℃]
6A	構体温度3	=	   30.2	[℃]
6B	構体温度4	=	   27.5	[℃]
6C	Bセル温度	=	   30.2	[℃]

 ========================== FO-29(ふじ3号)のテレメトリ分析、QSO情報等 =====================
   
 3)[jamsat-bb:

 =================================================================================================
 
 4)JARL のホームページに運用予定が記載されていましたのでご紹介します.
       ( http://www.jarl.or.jp/Japanese/3_Fuji/new/uy.htm )
       
        *** 運用予定について ***

   4月01日(月) 〜 6月30日(日)アナログ系運用 

  *なお,運用予定は都合により,変更することがありますので,あらかじめご了承願います。

 照会先 : lab@jarl.or.jp

 最新の情報はテレホンサービス(03−3942−1000)をお聞きください。  
 以後の運用につきましては平成14年7月上旬にお知らせいたします。        
     
-----------------------    FO−20(JAS-1b)道要素   -------------------------
  
  ■ 軌道要素1 :出典はFO-29「ふじ3号」に同じ.
  
FO-20
1 20480U 90013C   02213.01827511 -.00000000  00000-0  62294-4 0  4162
2 20480  99.0200 208.9170 0540899 100.5351 265.7127 12.83319012584662
 
  ■ 軌道要素2 :出典はFO−29「ふじ3号」に同じ.
               
